Location: Buckeye Ditch
(40.9104°N, 122.9517°W)
Time: 17:01:06
(UTC+00:00)

SR - Pass Details

Date: 19 May 2025
Orbit: 570 x 855 km, 66.7° (Epoch: 13 June)

Event Time Altitude Azimuth Distance (km) Brightness Sun altitude
Rises 15:52:09 0° 340° (NNW) 3,332 ? 32.3°
Reaches altitude 10° 15:55:29 10° 359° (N) 2,348 ? 32.9°
Maximum altitude 15:59:04 18° 41° (NE) 1,805 ? 33.6°
Drops below altitude 10° 16:02:28 10° 84° (E) 2,215 ? 34.2°
Sets 16:05:29 0° 103° (ESE) 3,070 ? 34.8°
